2018-111AA (43900 NORAD) Tracking and Keplerian Element Data

This shows tracking and keplerian element data for the satellite.

Feedback or suggestion? Click here.




ElementValue
Catalog43900
Name2018-111AA
Epoch Orbit391
Epoch Day21.76230515
Epoch Year2019
RAAN290.9657
Inclination97.2997
Eccentricity0.0023592
Argument of Perigee154.6613
Mean Anonmoly205.5787
Mean Motion15.23571891
Decay Rate5.18E-06
L11 43900U 18111AA 19021.76230515 .00000518 00000-0 24437-4 0 9998
L22 43900 97.2997 290.9657 0023592 154.6613 205.5787 15.23571891 3915

Live tracking and technical data element details for 2018-111AA (NORAD 43900). 2018-111AA can be tracked NOW for your location showing map with azimuth and elevation plus other details from your city location.

Track the satellite on the map from your city or location and see movement details for azimuth, elevation, latitude, longitude, range, height, and movement on the map or in text.







IsCatalogInMostPopularTable: catalog: 43900, numindb: 23
Update: records affected: 1



GetName: 43900 2018-111AA

Hit Count: updated at: Wed, 23 Jan 2019 02:40:32 GMT